Location: Mt. Bigelow
(32.4165°N, 110.7345°W)
Time: 15:10:33
(UTC-07:00)

OTV 5 (USA 277) - Visible Passes

Search period start: 17 June 2018 00:00
Search period end: 27 June 2018 00:00
Orbit: 313 x 320 km, 54.5° (Epoch: 16 June)

Date Brightness Start Highest point End Pass type
(mag) Time Alt. Az. Time Alt. Az. Time Alt. Az.
18 Jun ? 03:35:48 10° NNW 03:37:59 21° NE 03:40:10 10° E visible
19 Jun ? 03:49:48 10° NW 03:52:30 78° NE 03:55:11 10° SE visible
19 Jun ? 20:07:17 10° W 20:09:00 15° NW 20:10:43 10° N visible
20 Jun ? 02:31:05 10° N 02:31:56 13° NNE 02:31:56 13° NNE visible
